Orange, MA

10:57 PM EDT on September 28, 2016 (GMT -0400)
Orange Municipal

Weather History for KORE - December, 2013

Change the Weather History Date:

Tuesday, December 17, 2013

  Actual Average Record
Temperature  
Mean Temperature 2 °F -  
Max Temperature 12 °F 35 °F 60 °F (2000)
Min Temperature -8 °F 18 °F -8 °F (2013)
Degree Days  
Heating Degree Days 63    
Moisture  
Dew Point 5 °F    
Average Humidity 85    
Maximum Humidity 95    
Minimum Humidity 80    
Precipitation  
Precipitation 0.27 in - - ()
Sea Level Pressure  
Sea Level Pressure 30.11 in    
Wind  
Wind Speed 2 mph (NNW)    
Max Wind Speed 9 mph    
Max Gust Speed -    
Visibility 3 miles    
Events Fog , Snow    
Averages and records for this station are not official NWS values.
T = Trace of Precipitation, MM = Missing Value Source: NWS Daily Summary

Daily Weather History Graph

Daily Weather History Graph

Search for Another Location

Airport or City:

Trip Planner

Search our weather history database for the weather conditions in past years. The results will help you decide how hot, cold, wet, or windy it might be!

Date:

Astronomy

Dec. 17, 2013 Rise Set
Actual Time 7:13 AM EST 4:17 PM EST
Civil Twilight 6:41 AM EST 4:49 PM EST
Nautical Twilight 6:05 AM EST 5:25 PM EST
Astronomical Twilight 5:31 AM EST 5:59 PM EST
Moon 4:56 PM EST (12/17) 7:06 AM EST (12/17)
Length of Visible Light 10h 08m
Length of Day
9h 03m
Full, 100% of the Moon is Illuminated
Dec 17
Full
Dec 25
Last Quarter
Jan 1
New
Jan 7
First Quarter
Jan 15
Full

Hourly Weather History & Observations

Time (EST) Temp. Windchill Dew Point Humidity Pressure Visibility Wind Dir Wind Speed Gust Speed Precip Events Conditions
1:52 AM 1.0 °F - -2.9 °F 83% 30.23 in 10.0 mi Calm Calm - N/A   Clear
2:52 AM -0.9 °F - -4.0 °F 87% 30.25 in 10.0 mi Calm Calm - N/A   Clear
3:52 AM -2.9 °F - -5.1 °F 90% 30.25 in 10.0 mi Calm Calm - N/A   Clear
4:52 AM -5.1 °F - -8.0 °F 87% 30.25 in 10.0 mi Calm Calm - N/A   Clear
5:52 AM -5.1 °F - -9.0 °F 83% 30.25 in 10.0 mi Calm Calm - N/A   Clear
6:52 AM -8.0 °F - -11.9 °F 83% 30.26 in 10.0 mi Calm Calm - N/A   Clear
7:52 AM -6.0 °F - -9.9 °F 83% 30.24 in 10.0 mi Calm Calm - N/A   Clear
8:52 AM -2.9 °F - -7.1 °F 82% 30.26 in 10.0 mi Calm Calm - N/A   Mostly Cloudy
9:52 AM 1.9 °F - -0.9 °F 88% 30.26 in 9.0 mi Calm Calm - N/A   Overcast
10:11 AM 3.0 °F - -0.0 °F 87% 30.21 in 1.8 mi Calm Calm - 0.00 in Snow Light Snow
10:24 AM 3.0 °F - 1.0 °F 91% 30.20 in 1.5 mi Calm Calm - 0.00 in Snow Light Snow
10:44 AM 6.1 °F - 5.0 °F 95% 30.20 in 2.0 mi Calm Calm - 0.00 in Snow Light Snow
10:52 AM 7.0 °F - 3.0 °F 84% 30.24 in 1.8 mi Calm Calm - 0.00 in Snow Light Snow
10:58 AM 6.1 °F - 1.9 °F 83% 30.19 in 2.0 mi Calm Calm - 0.00 in Snow Light Snow
11:04 AM 6.1 °F - 1.9 °F 83% 30.18 in 1.2 mi Calm Calm - 0.00 in Snow Light Snow
11:09 AM 6.1 °F - 3.0 °F 87% 30.18 in 0.8 mi Calm Calm - 0.00 in Snow Light Snow
11:18 AM 7.0 °F - 3.0 °F 84% 30.17 in 1.0 mi Calm Calm - 0.00 in Snow Light Snow
11:52 AM 8.1 °F - 6.1 °F 92% 30.18 in 0.5 mi Calm Calm - 0.02 in Fog , Snow Snow
12:52 PM 10.0 °F - 7.0 °F 87% 30.14 in 0.8 mi Calm Calm - 0.03 in Snow Light Snow
1:06 PM 10.0 °F - 7.0 °F 87% 30.09 in 1.2 mi Calm Calm - 0.01 in Snow Light Snow
1:08 PM 10.0 °F - 7.0 °F 87% 30.09 in 1.5 mi Calm Calm - 0.01 in Snow Light Snow
1:32 PM 10.9 °F - 8.1 °F 88% 30.08 in 2.0 mi Calm Calm - 0.01 in Snow Light Snow
1:47 PM 10.4 °F - 8.6 °F 92% 30.07 in 1.5 mi Calm Calm - 0.02 in Snow Light Snow
1:52 PM 12.0 °F 1.5 °F 7.0 °F 80% 30.11 in 1.2 mi East 6.9 mph - 0.02 in Snow Light Snow
2:03 PM 12.0 °F 2.7 °F 8.1 °F 84% 30.07 in 1.0 mi ENE 5.8 mph - 0.00 in Snow Light Snow
2:11 PM 12.0 °F 4.1 °F 8.1 °F 84% 30.07 in 1.5 mi ENE 4.6 mph - 0.00 in Snow Light Snow
2:18 PM 12.0 °F 2.7 °F 7.0 °F 80% 30.06 in 3.0 mi ENE 5.8 mph - 0.00 in Snow Light Snow
2:27 PM 12.0 °F 4.1 °F 7.0 °F 80% 30.06 in 1.8 mi NE 4.6 mph - 0.01 in Snow Light Snow
2:37 PM 12.0 °F - 8.1 °F 84% 30.05 in 1.0 mi Calm Calm - 0.01 in Snow Light Snow
2:44 PM 12.0 °F 5.9 °F 8.1 °F 84% 30.06 in 0.5 mi East 3.5 mph - 0.02 in Fog , Snow Snow
2:52 PM 12.0 °F 5.9 °F 8.1 °F 84% 30.10 in 0.2 mi NNE 3.5 mph - 0.02 in Fog , Snow Snow
3:52 PM 12.0 °F 4.1 °F 8.1 °F 84% 30.10 in 0.5 mi North 4.6 mph - 0.05 in Fog , Snow Snow
4:22 PM 12.0 °F 1.5 °F 9.0 °F 88% 30.05 in 0.8 mi NNW 6.9 mph - 0.02 in Snow Light Snow
4:42 PM 12.0 °F 2.7 °F 9.0 °F 88% 30.06 in 0.8 mi NNW 5.8 mph - 0.03 in Snow Light Snow
4:52 PM 12.0 °F 1.5 °F 9.0 °F 88% 30.09 in 0.8 mi North 6.9 mph - 0.04 in Snow Light Snow
5:04 PM 12.0 °F 0.5 °F 8.1 °F 84% 30.05 in 0.8 mi North 8.1 mph - 0.00 in Snow Light Snow
5:08 PM 12.0 °F -0.4 °F 8.1 °F 84% 30.05 in 1.2 mi NNW 9.2 mph - 0.01 in Snow Light Snow
5:28 PM 12.0 °F 0.5 °F 8.1 °F 84% 30.07 in 1.0 mi NW 8.1 mph - 0.01 in Snow Light Snow
5:39 PM 10.9 °F 0.2 °F 8.1 °F 88% 30.05 in 0.8 mi NNW 6.9 mph - 0.02 in Snow Light Snow
5:52 PM 12.0 °F 1.5 °F 8.1 °F 84% 30.10 in 0.5 mi NNW 6.9 mph - 0.04 in Fog , Snow Snow
6:16 PM 10.9 °F 0.2 °F 7.0 °F 84% 30.06 in 1.0 mi NW 6.9 mph - 0.02 in Snow Light Snow
6:27 PM 10.9 °F -0.8 °F 7.0 °F 84% 30.06 in 1.2 mi NW 8.1 mph - 0.02 in Snow Light Snow
6:34 PM 10.9 °F -0.8 °F 7.0 °F 84% 30.06 in 1.2 mi NNW 8.1 mph - 0.02 in Snow Light Snow
6:52 PM 10.9 °F 1.4 °F 7.0 °F 84% 30.10 in 1.2 mi NW 5.8 mph - 0.02 in Snow Light Snow
6:56 PM 10.9 °F 0.2 °F 7.0 °F 84% 30.05 in 1.0 mi NW 6.9 mph - 0.00 in Snow Light Snow
7:07 PM 10.0 °F 0.4 °F 7.0 °F 87% 30.05 in 0.5 mi NNW 5.8 mph - 0.02 in Fog , Snow Snow
7:14 PM 10.0 °F 0.4 °F 7.0 °F 87% 30.04 in 0.5 mi NW 5.8 mph - 0.03 in Fog , Snow Snow
7:27 PM 10.0 °F 1.8 °F 7.0 °F 87% 30.03 in 1.0 mi NNW 4.6 mph - 0.03 in Snow Light Snow
7:33 PM 10.9 °F 1.4 °F 7.0 °F 84% 30.03 in 1.5 mi NNW 5.8 mph - 0.03 in Snow Light Snow
7:39 PM 10.9 °F 0.2 °F 7.0 °F 84% 30.02 in 2.0 mi NW 6.9 mph - 0.03 in Snow Light Snow
7:52 PM 10.9 °F -1.8 °F 7.0 °F 84% 30.07 in 2.0 mi NW 9.2 mph - 0.03 in Snow Light Snow
8:00 PM 10.0 °F -2.9 °F 6.1 °F 84% 30.02 in 3.0 mi NW 9.2 mph - 0.00 in Snow Light Snow
8:52 PM 10.9 °F -0.8 °F 7.0 °F 84% 30.06 in 9.0 mi NW 8.1 mph - 0.00 in   Overcast
9:52 PM 12.9 °F 2.6 °F 8.1 °F 81% 30.05 in 10.0 mi NNW 6.9 mph - N/A   Overcast
10:06 PM 12.0 °F 2.7 °F 8.1 °F 84% 30.01 in 10.0 mi NNW 5.8 mph - N/A   Overcast
10:52 PM 12.9 °F 5.2 °F 8.1 °F 81% 30.01 in 10.0 mi NW 4.6 mph - N/A   Overcast
11:52 PM 12.9 °F 0.7 °F 8.1 °F 81% 30.01 in 10.0 mi NW 9.2 mph - N/A   Overcast